Flag for Germany Weather past 2 weeks in Gladbeck, North Rhine-Westphalia, Germany

Now
46 °F

Overcast.


Feels Like: 41 °F
Forecast: 35 / 45 °F
Wind: 9 mph from West

Location: Duesseldorf

Current Time: Mar 2, 2015 at 2:28:39 AM

Latest Report: Mar 2, 2015 at 2:00 AM


Visibility: 28 mi

Pressure: 29.47 "Hg

Humidity: 78%

Dew point: 39 °F

Location of GladbeckLocation

Historic Weather in Gladbeck — Graph

°F

Gladbeck temperature yesterday

Maximum temperature yesterday: 52 °F (at 1:00 PM)
Minimum temperature yesterday: 40 °F (at 6:00 AM)
Average temperature yesterday: 46 °F

Past Weeks' High & Low Weather Summary

 TemperatureHumidityPressure
High52 °F (Mar 1, 1:00 PM)100% (Feb 18, 7:00 AM)30.78 "Hg (Feb 18, 7:00 AM)
Low26 °F (Feb 15, 8:00 AM)49% (Feb 28, 4:00 PM)29.35 "Hg (Feb 21, 5:00 AM)
Average39 °F83%29.97 "Hg
* Reported Feb 15 1:00 AM — Mar 2 1:00 AM, Gladbeck, Weather by CustomWeather, © 2015

Note: Actual official high and low records may vary slightly from our data, if they occured in-between our weather recording intervals... More about our weather records

Advertising

Gladbeck weather history for previous 24 hours

 ConditionsComfort  
Time TempWeatherWind HumidityBarometerVisibility
1:00 AM
Mon, Mar 2
47 °FPassing clouds.12 mph78%29.44 "Hg22 mi
12:00 AM48 °FOvercast.8 mph71%29.47 "Hg25 mi
11:00 PM
Sun, Mar 1
46 °FOvercast.5 mph77%29.50 "Hg28 mi
9:00 PM44 °FPassing clouds.6 mph81%29.60 "Hg25 mi
8:00 PM44 °FPassing clouds.6 mph77%29.62 "Hg25 mi
7:00 PM47 °FPassing clouds.6 mph73%29.63 "Hg12 mi
6:00 PM49 °FScattered clouds.8 mph64%29.62 "Hg19 mi
5:00 PM51 °FScattered clouds.10 mph63%29.62 "Hg25 mi
3:00 PM51 °FOvercast.12 mph60%29.62 "Hg16 mi
2:00 PM52 °FOvercast.12 mph59%29.62 "Hg22 mi
1:00 PM52 °FScattered clouds.14 mph55%29.63 "Hg22 mi
12:00 PM50 °FPartly sunny.10 mph61%29.62 "Hg22 mi
11:00 AM51 °FScattered clouds.10 mph67%29.61 "Hg12 mi
10:00 AM49 °FPartly sunny.10 mph83%29.60 "Hg25 mi
9:00 AM46 °FPartly sunny.7 mph92%29.59 "Hg12 mi
8:00 AM41 °FRain. Low clouds.7 mph97%29.59 "Hg3 mi
7:00 AM41 °FRain. Low clouds.8 mph96%29.58 "Hg4 mi
6:00 AM40 °FRain. Low clouds.9 mph97%29.60 "Hg2 mi
5:00 AM40 °FLight rain. Overcast.10 mph90%29.60 "Hg11 mi
3:00 AM42 °FLight rain. Overcast.9 mph69%29.67 "Hg25 mi
2:00 AM43 °FLight rain. Overcast.8 mph65%29.70 "Hg25 mi
Weather by CustomWeather, © 2015

See weather overviewHow to use our weather pages